Time,TemperatureF,DewpointF,PressureIn,WindDirection,WindDirectionDegrees,WindSpeedMPH,WindSpeedGustMPH,Humidity,HourlyPrecipIn,Conditions,Clouds,dailyrainin,SoftwareType,DateUTC
2013-05-09 00:00:00,66.4,53.4,29.09,South,186,0.0,0.0,63,0.00,,---,0.00,VWS V14.00,2013-05-09 05:00:00,
2013-05-09 00:06:00,66.2,53.2,29.09,South,186,0.0,0.0,63,0.00,,---,0.00,VWS V14.00,2013-05-09 05:06:00,
2013-05-09 00:09:00,66.2,53.2,29.09,South,186,0.0,0.0,63,0.00,,---,0.00,VWS V14.00,2013-05-09 05:09:00,
2013-05-09 00:12:00,66.2,53.2,29.09,South,186,0.0,0.0,63,0.00,,---,0.00,VWS V14.00,2013-05-09 05:12:00,
2013-05-09 00:15:00,66.2,53.2,29.09,South,186,0.0,0.0,63,0.00,,---,0.00,VWS V14.00,2013-05-09 05:15:00,
2013-05-09 00:18:00,66.2,53.2,29.09,South,186,0.0,0.0,63,0.00,,---,0.00,VWS V14.00,2013-05-09 05:18:00,
2013-05-09 00:20:00,66.0,53.1,29.09,South,186,0.0,0.0,63,0.00,,---,0.00,VWS V14.00,2013-05-09 05:20:00,
2013-05-09 00:24:00,66.0,53.1,29.09,South,186,0.0,0.0,63,0.00,,---,0.00,VWS V14.00,2013-05-09 05:24:00,
2013-05-09 00:27:00,66.0,53.1,29.09,South,186,0.0,0.0,63,0.00,,---,0.00,VWS V14.00,2013-05-09 05:27:00,
2013-05-09 00:30:00,66.2,53.2,29.09,South,186,0.0,0.0,63,0.00,,---,0.00,VWS V14.00,2013-05-09 05:30:00,
2013-05-09 00:36:00,66.2,53.2,29.09,South,186,0.0,0.0,63,0.00,,---,0.00,VWS V14.00,2013-05-09 05:36:00,
2013-05-09 00:39:00,66.2,53.2,29.09,South,186,0.0,0.0,63,0.00,,---,0.00,VWS V14.00,2013-05-09 05:39:00,
2013-05-09 00:42:00,66.2,53.2,29.09,South,186,0.0,0.0,63,0.00,,---,0.00,VWS V14.00,2013-05-09 05:42:00,
2013-05-09 00:45:00,66.2,53.2,29.09,South,186,0.0,0.0,63,0.00,,---,0.00,VWS V14.00,2013-05-09 05:45:00,
2013-05-09 00:48:00,66.2,53.2,29.09,South,186,0.0,0.0,63,0.00,,---,0.00,VWS V14.00,2013-05-09 05:48:00,
2013-05-09 00:51:00,66.0,53.5,29.09,South,186,0.0,0.0,64,0.00,,---,0.00,VWS V14.00,2013-05-09 05:51:00,
2013-05-09 00:57:00,66.0,53.5,29.09,South,186,0.0,0.0,64,0.00,,---,0.00,VWS V14.00,2013-05-09 05:57:00,
2013-05-09 01:03:00,65.6,53.6,29.06,South,186,0.0,0.0,65,0.00,,---,0.00,VWS V14.00,2013-05-09 06:03:00,
2013-05-09 01:06:00,65.6,53.6,29.06,South,186,0.0,0.0,65,0.00,,---,0.00,VWS V14.00,2013-05-09 06:06:00,
2013-05-09 01:09:00,65.6,53.6,29.06,South,186,0.0,0.0,65,0.00,,---,0.00,VWS V14.00,2013-05-09 06:09:00,
2013-05-09 01:12:00,65.6,53.6,29.06,South,186,0.0,0.0,65,0.00,,---,0.00,VWS V14.00,2013-05-09 06:12:00,
2013-05-09 01:15:00,65.5,53.8,29.06,South,186,0.0,0.0,66,0.00,,---,0.00,VWS V14.00,2013-05-09 06:15:00,
2013-05-09 01:20:00,65.1,53.5,29.06,South,186,0.0,0.0,66,0.00,,---,0.00,VWS V14.00,2013-05-09 06:20:00,
2013-05-09 01:21:00,65.1,53.5,29.06,South,186,0.0,0.0,66,0.00,,---,0.00,VWS V14.00,2013-05-09 06:21:00,
2013-05-09 01:24:00,65.1,53.5,29.06,South,186,0.0,0.0,66,0.00,,---,0.00,VWS V14.00,2013-05-09 06:24:00,
2013-05-09 01:27:00,65.1,53.5,29.06,South,186,0.0,0.0,66,0.00,,---,0.00,VWS V14.00,2013-05-09 06:27:00,
2013-05-09 01:30:00,65.1,53.5,29.06,South,186,0.0,0.0,66,0.00,,---,0.00,VWS V14.00,2013-05-09 06:30:00,
2013-05-09 01:33:00,64.9,53.7,29.06,South,186,0.0,0.0,67,0.00,,---,0.00,VWS V14.00,2013-05-09 06:33:00,
2013-05-09 01:36:00,64.9,53.7,29.06,South,186,0.0,0.0,67,0.00,,---,0.00,VWS V14.00,2013-05-09 06:36:00,
2013-05-09 01:39:00,64.6,53.4,29.06,South,186,0.0,0.0,67,0.00,,---,0.00,VWS V14.00,2013-05-09 06:39:00,
2013-05-09 01:42:00,64.4,53.6,29.06,South,186,0.0,0.0,68,0.00,,---,0.00,VWS V14.00,2013-05-09 06:42:00,
2013-05-09 01:45:00,64.6,53.4,29.06,South,186,0.0,0.0,67,0.00,,---,0.00,VWS V14.00,2013-05-09 06:45:00,
2013-05-09 01:48:00,64.6,53.4,29.06,South,186,0.0,0.0,67,0.00,,---,0.00,VWS V14.00,2013-05-09 06:48:00,
2013-05-09 01:51:00,64.6,53.4,29.06,South,186,0.0,0.0,67,0.00,,---,0.00,VWS V14.00,2013-05-09 06:51:00,
2013-05-09 01:54:00,64.7,53.5,29.06,South,186,0.0,0.0,67,0.00,,---,0.00,VWS V14.00,2013-05-09 06:54:00,
2013-05-09 01:57:00,64.7,53.5,29.06,South,186,0.0,0.0,67,0.00,,---,0.00,VWS V14.00,2013-05-09 06:57:00,
2013-05-09 02:00:00,64.7,53.5,29.06,South,186,0.0,0.0,67,0.00,,---,0.00,VWS V14.00,2013-05-09 07:00:00,
2013-05-09 02:03:00,64.7,54.0,29.06,South,186,0.0,0.0,68,0.00,,---,0.00,VWS V14.00,2013-05-09 07:03:00,
2013-05-09 02:06:00,64.7,54.0,29.06,South,186,0.0,0.0,68,0.00,,---,0.00,VWS V14.00,2013-05-09 07:06:00,
2013-05-09 02:09:00,64.7,54.0,29.06,South,186,0.0,0.0,68,0.00,,---,0.00,VWS V14.00,2013-05-09 07:09:00,
2013-05-09 02:12:00,64.4,53.6,29.06,South,186,0.0,0.0,68,0.00,,---,0.00,VWS V14.00,2013-05-09 07:12:00,
2013-05-09 02:18:00,64.6,54.2,29.06,South,186,0.0,0.0,69,0.00,,---,0.00,VWS V14.00,2013-05-09 07:18:00,
2013-05-09 02:24:00,64.6,54.2,29.06,South,186,0.0,0.0,69,0.00,,---,0.00,VWS V14.00,2013-05-09 07:24:00,
2013-05-09 02:27:00,64.4,54.4,29.06,South,186,0.0,0.0,70,0.00,,---,0.00,VWS V14.00,2013-05-09 07:27:00,
2013-05-09 02:30:00,64.2,54.2,29.06,South,186,0.0,0.0,70,0.00,,---,0.00,VWS V14.00,2013-05-09 07:30:00,
2013-05-09 02:36:00,64.2,54.2,29.06,South,186,0.0,0.0,70,0.00,,---,0.00,VWS V14.00,2013-05-09 07:36:00,
2013-05-09 02:42:00,63.8,54.3,29.06,South,186,0.0,0.0,71,0.00,,---,0.00,VWS V14.00,2013-05-09 07:42:00,
2013-05-09 02:45:00,63.8,54.3,29.06,South,186,0.0,0.0,71,0.00,,---,0.00,VWS V14.00,2013-05-09 07:45:00,
2013-05-09 02:48:00,63.8,54.7,29.06,South,186,0.0,0.0,72,0.00,,---,0.00,VWS V14.00,2013-05-09 07:48:00,
2013-05-09 02:51:00,63.8,54.7,29.06,South,186,0.0,0.0,72,0.00,,---,0.00,VWS V14.00,2013-05-09 07:51:00,
2013-05-09 02:57:00,64.0,54.8,29.06,South,186,0.0,0.0,72,0.00,,---,0.00,VWS V14.00,2013-05-09 07:57:00,
2013-05-09 03:00:00,64.0,54.8,29.06,South,186,0.0,0.0,72,0.00,,---,0.00,VWS V14.00,2013-05-09 08:00:00,
2013-05-09 03:03:00,64.0,54.8,29.06,South,186,0.0,0.0,72,0.00,,---,0.00,VWS V14.00,2013-05-09 08:03:00,
2013-05-09 03:06:00,64.0,54.8,29.06,South,186,0.0,0.0,72,0.00,,---,0.00,VWS V14.00,2013-05-09 08:06:00,
2013-05-09 03:12:00,64.2,54.6,29.06,South,180,2.2,2.2,71,0.00,,---,0.00,VWS V14.00,2013-05-09 08:12:00,
2013-05-09 03:15:00,64.4,54.8,29.06,South,187,3.6,4.0,71,0.00,,---,0.00,VWS V14.00,2013-05-09 08:15:00,
2013-05-09 03:18:00,64.4,54.8,29.06,South,187,3.6,4.0,71,0.00,,---,0.00,VWS V14.00,2013-05-09 08:18:00,
2013-05-09 03:20:00,64.4,54.8,29.06,South,183,3.6,4.0,71,0.00,,---,0.00,VWS V14.00,2013-05-09 08:20:00,
2013-05-09 03:21:00,64.4,54.8,29.06,South,183,2.7,3.6,71,0.00,,---,0.00,VWS V14.00,2013-05-09 08:21:00,
2013-05-09 03:24:00,64.4,54.8,29.06,SSE,147,3.1,3.6,71,0.00,,---,0.00,VWS V14.00,2013-05-09 08:24:00,
2013-05-09 03:27:00,64.4,54.8,29.06,SSE,147,3.1,3.6,71,0.00,,---,0.00,VWS V14.00,2013-05-09 08:27:00,
2013-05-09 03:30:00,64.4,54.8,29.06,South,174,4.0,4.9,71,0.00,,---,0.00,VWS V14.00,2013-05-09 08:30:00,
2013-05-09 03:33:00,64.4,54.8,29.03,South,176,4.0,4.9,71,0.00,,---,0.00,VWS V14.00,2013-05-09 08:33:00,
2013-05-09 03:35:00,64.6,55.0,29.03,SE,143,3.1,4.9,71,0.00,,---,0.00,VWS V14.00,2013-05-09 08:35:00,
2013-05-09 03:42:00,64.6,55.0,29.03,South,170,3.6,4.0,71,0.00,,---,0.00,VWS V14.00,2013-05-09 08:42:00,
2013-05-09 03:45:00,64.7,54.7,29.03,South,186,4.0,4.0,70,0.00,,---,0.00,VWS V14.00,2013-05-09 08:45:00,
2013-05-09 03:48:00,64.7,54.7,29.03,South,186,4.0,4.0,70,0.00,,---,0.00,VWS V14.00,2013-05-09 08:48:00,
2013-05-09 03:51:00,64.7,54.7,29.03,South,186,4.0,4.0,70,0.00,,---,0.00,VWS V14.00,2013-05-09 08:51:00,
2013-05-09 03:54:00,64.7,54.7,29.03,South,180,0.0,4.0,70,0.00,,---,0.00,VWS V14.00,2013-05-09 08:54:00,
2013-05-09 03:57:00,64.7,54.7,29.03,South,173,3.6,4.0,70,0.00,,---,0.00,VWS V14.00,2013-05-09 08:57:00,
2013-05-09 04:00:00,64.7,54.7,29.03,South,173,3.6,4.0,70,0.00,,---,0.00,VWS V14.00,2013-05-09 09:00:00,
2013-05-09 04:05:00,64.7,54.7,29.03,South,186,2.7,4.0,70,0.00,,---,0.00,VWS V14.00,2013-05-09 09:05:00,
2013-05-09 04:09:00,64.9,54.9,29.03,South,185,0.0,2.7,70,0.00,,---,0.00,VWS V14.00,2013-05-09 09:09:00,
2013-05-09 04:12:00,64.9,54.9,29.03,South,185,0.0,2.7,70,0.00,,---,0.00,VWS V14.00,2013-05-09 09:12:00,
2013-05-09 04:15:00,64.9,54.9,29.03,SSE,164,2.2,2.7,70,0.00,,---,0.00,VWS V14.00,2013-05-09 09:15:00,
2013-05-09 04:18:00,64.7,54.7,29.03,East,97,0.0,2.7,70,0.00,,---,0.00,VWS V14.00,2013-05-09 09:18:00,
2013-05-09 04:21:00,64.7,54.7,29.03,East,97,0.0,2.7,70,0.00,,---,0.00,VWS V14.00,2013-05-09 09:21:00,
2013-05-09 04:27:00,64.7,54.7,29.03,SSE,160,2.7,2.7,70,0.00,,---,0.00,VWS V14.00,2013-05-09 09:27:00,
2013-05-09 04:31:00,64.7,54.7,29.03,South,183,2.7,2.7,70,0.00,,---,0.00,VWS V14.00,2013-05-09 09:31:00,
2013-05-09 04:34:00,64.7,54.7,29.03,South,186,4.0,4.0,70,0.00,,---,0.00,VWS V14.00,2013-05-09 09:34:00,
2013-05-09 04:35:00,64.9,54.9,29.03,South,186,4.0,4.0,70,0.00,,---,0.00,VWS V14.00,2013-05-09 09:35:00,
2013-05-09 04:40:00,64.9,54.9,29.03,SSE,153,2.7,4.0,70,0.00,,---,0.00,VWS V14.00,2013-05-09 09:40:00,
2013-05-09 04:46:00,64.7,55.1,29.03,South,179,3.1,4.0,71,0.00,,---,0.00,VWS V14.00,2013-05-09 09:46:00,
2013-05-09 04:49:00,64.7,55.1,29.03,SSE,159,3.1,4.0,71,0.00,,---,0.00,VWS V14.00,2013-05-09 09:49:00,
2013-05-09 04:52:00,64.9,55.3,29.03,South,180,3.1,3.1,71,0.00,,---,0.00,VWS V14.00,2013-05-09 09:52:00,
2013-05-09 04:55:00,64.9,55.3,29.03,South,180,0.0,3.1,71,0.00,,---,0.00,VWS V14.00,2013-05-09 09:55:00,
2013-05-09 04:58:00,64.9,55.3,29.03,South,181,3.6,3.6,71,0.00,,---,0.00,VWS V14.00,2013-05-09 09:58:00,
2013-05-09 05:01:00,64.9,55.3,29.03,SSE,164,3.1,3.6,71,0.00,,---,0.00,VWS V14.00,2013-05-09 10:01:00,
2013-05-09 05:04:00,64.9,55.3,29.03,South,181,2.7,3.6,71,0.00,,---,0.00,VWS V14.00,2013-05-09 10:04:00,
2013-05-09 05:05:00,64.9,55.3,29.03,South,170,5.4,5.4,71,0.00,,---,0.00,VWS V14.00,2013-05-09 10:05:00,
2013-05-09 05:07:00,64.9,55.3,29.03,South,170,5.4,5.4,71,0.00,,---,0.00,VWS V14.00,2013-05-09 10:07:00,
2013-05-09 05:13:00,64.9,55.3,29.03,SSE,162,4.0,5.4,71,0.00,,---,0.00,VWS V14.00,2013-05-09 10:13:00,
2013-05-09 05:16:00,64.9,55.3,29.03,SSE,162,4.0,5.4,71,0.00,,---,0.00,VWS V14.00,2013-05-09 10:16:00,
2013-05-09 05:19:00,64.9,55.3,29.03,SE,136,3.1,5.4,71,0.00,,---,0.00,VWS V14.00,2013-05-09 10:19:00,
2013-05-09 05:21:00,64.9,55.3,29.03,SE,136,3.1,5.4,71,0.00,,---,0.00,VWS V14.00,2013-05-09 10:21:00,
2013-05-09 05:22:00,64.9,55.3,29.03,SE,136,3.1,3.1,71,0.00,,---,0.00,VWS V14.00,2013-05-09 10:22:00,
2013-05-09 05:28:00,64.9,55.3,29.03,SE,136,3.1,3.1,71,0.00,,---,0.00,VWS V14.00,2013-05-09 10:28:00,
2013-05-09 05:31:00,64.9,55.3,29.03,South,191,2.2,3.1,71,0.00,,---,0.00,VWS V14.00,2013-05-09 10:31:00,
2013-05-09 05:34:00,64.9,55.7,29.03,South,191,2.7,3.1,72,0.00,,---,0.00,VWS V14.00,2013-05-09 10:34:00,
2013-05-09 05:36:00,64.9,55.7,29.03,South,191,2.7,3.1,72,0.00,,---,0.00,VWS V14.00,2013-05-09 10:36:00,
2013-05-09 05:40:00,64.9,55.7,29.03,South,191,2.2,2.7,72,0.00,,---,0.00,VWS V14.00,2013-05-09 10:40:00,
2013-05-09 05:43:00,64.9,55.7,29.03,South,170,3.1,4.9,72,0.00,,---,0.00,VWS V14.00,2013-05-09 10:43:00,
2013-05-09 05:46:00,64.7,55.5,29.06,South,170,3.1,4.9,72,0.00,,---,0.00,VWS V14.00,2013-05-09 10:46:00,
2013-05-09 05:49:00,64.7,55.9,29.06,South,170,2.2,4.9,73,0.00,,---,0.00,VWS V14.00,2013-05-09 10:49:00,
2013-05-09 05:52:00,64.7,56.3,29.06,South,191,2.2,2.2,74,0.00,,---,0.00,VWS V14.00,2013-05-09 10:52:00,
2013-05-09 05:55:00,64.7,56.3,29.06,SSE,162,3.6,3.6,74,0.00,,---,0.00,VWS V14.00,2013-05-09 10:55:00,
2013-05-09 05:58:00,64.7,56.3,29.06,South,181,2.7,3.6,74,0.00,,---,0.00,VWS V14.00,2013-05-09 10:58:00,
2013-05-09 06:04:00,64.4,56.3,29.03,South,185,3.1,3.6,75,0.00,,---,0.00,VWS V14.00,2013-05-09 11:04:00,
2013-05-09 06:05:00,64.4,56.3,29.03,South,185,2.7,3.6,75,0.00,,---,0.00,VWS V14.00,2013-05-09 11:05:00,
2013-05-09 06:07:00,64.4,56.3,29.03,South,185,2.7,2.7,75,0.00,,---,0.00,VWS V14.00,2013-05-09 11:07:00,
2013-05-09 06:13:00,64.2,56.1,29.03,South,179,0.0,3.6,75,0.00,,---,0.00,VWS V14.00,2013-05-09 11:13:00,
2013-05-09 06:16:00,64.2,56.1,29.03,SSE,168,2.7,3.6,75,0.00,,---,0.00,VWS V14.00,2013-05-09 11:16:00,
2013-05-09 06:19:00,64.2,56.5,29.03,SSE,167,2.7,3.6,76,0.00,,---,0.00,VWS V14.00,2013-05-09 11:19:00,
2013-05-09 06:25:00,64.0,56.7,29.03,South,187,2.7,2.7,77,0.00,,---,0.00,VWS V14.00,2013-05-09 11:25:00,
2013-05-09 06:28:00,64.0,56.7,29.03,SSW,196,3.1,3.1,77,0.00,,---,0.00,VWS V14.00,2013-05-09 11:28:00,
2013-05-09 06:31:00,64.0,56.7,29.03,SSW,196,0.0,3.1,77,0.00,,---,0.00,VWS V14.00,2013-05-09 11:31:00,
2013-05-09 06:34:00,64.0,56.7,29.03,South,187,0.0,3.1,77,0.00,,---,0.00,VWS V14.00,2013-05-09 11:34:00,
2013-05-09 06:37:00,64.0,56.7,29.03,South,187,0.0,0.0,77,0.00,,---,0.00,VWS V14.00,2013-05-09 11:37:00,
2013-05-09 06:40:00,64.0,57.0,29.03,South,187,0.0,0.0,78,0.00,,---,0.00,VWS V14.00,2013-05-09 11:40:00,
2013-05-09 06:43:00,64.0,57.0,29.03,South,187,0.0,2.7,78,0.00,,---,0.00,VWS V14.00,2013-05-09 11:43:00,
2013-05-09 06:46:00,64.2,56.8,29.03,South,187,0.0,2.7,77,0.00,,---,0.00,VWS V14.00,2013-05-09 11:46:00,
2013-05-09 06:49:00,64.2,57.2,29.03,South,187,0.0,2.7,78,0.00,,---,0.00,VWS V14.00,2013-05-09 11:49:00,
2013-05-09 06:55:00,64.2,57.2,29.03,South,187,0.0,0.0,78,0.00,,---,0.00,VWS V14.00,2013-05-09 11:55:00,
2013-05-09 06:58:00,64.2,57.6,29.03,South,187,0.0,0.0,79,0.00,,---,0.00,VWS V14.00,2013-05-09 11:58:00,
2013-05-09 07:01:00,64.2,57.6,29.03,South,187,0.0,0.0,79,0.00,,---,0.00,VWS V14.00,2013-05-09 12:01:00,
2013-05-09 07:05:00,64.4,57.4,29.03,South,187,0.0,4.0,78,0.00,,---,0.00,VWS V14.00,2013-05-09 12:05:00,
2013-05-09 07:10:00,64.4,57.4,29.03,South,187,0.0,0.0,78,0.00,,---,0.00,VWS V14.00,2013-05-09 12:10:00,
2013-05-09 07:16:00,64.6,57.6,29.03,South,187,0.0,0.0,78,0.00,,---,0.00,VWS V14.00,2013-05-09 12:16:00,
2013-05-09 07:19:00,64.6,57.6,29.03,South,187,0.0,0.0,78,0.00,,---,0.00,VWS V14.00,2013-05-09 12:19:00,
2013-05-09 07:22:00,64.6,57.6,29.03,South,187,0.0,0.0,78,0.00,,---,0.00,VWS V14.00,2013-05-09 12:22:00,
2013-05-09 07:25:00,64.6,57.9,29.06,South,187,0.0,0.0,79,0.00,,---,0.00,VWS V14.00,2013-05-09 12:25:00,
2013-05-09 07:28:00,64.4,58.1,29.06,South,187,0.0,0.0,80,0.00,,---,0.00,VWS V14.00,2013-05-09 12:28:00,
2013-05-09 07:31:00,64.2,57.9,29.06,South,187,0.0,0.0,80,0.00,,---,0.00,VWS V14.00,2013-05-09 12:31:00,
2013-05-09 07:36:00,64.2,57.9,29.06,South,187,0.0,0.0,80,0.00,,---,0.00,VWS V14.00,2013-05-09 12:36:00,
2013-05-09 07:37:00,64.2,57.9,29.06,South,187,0.0,0.0,80,0.00,,---,0.00,VWS V14.00,2013-05-09 12:37:00,
2013-05-09 07:40:00,64.2,58.3,29.06,South,187,0.0,0.0,81,0.00,,---,0.00,VWS V14.00,2013-05-09 12:40:00,
2013-05-09 07:43:00,64.2,58.3,29.06,South,187,0.0,0.0,81,0.00,,---,0.00,VWS V14.00,2013-05-09 12:43:00,
2013-05-09 07:46:00,64.2,58.3,29.06,South,187,0.0,0.0,81,0.00,,---,0.00,VWS V14.00,2013-05-09 12:46:00,
2013-05-09 07:49:00,64.2,58.3,29.06,South,187,0.0,0.0,81,0.00,,---,0.00,VWS V14.00,2013-05-09 12:49:00,
2013-05-09 07:52:00,64.2,58.6,29.06,South,187,0.0,0.0,82,0.00,,---,0.00,VWS V14.00,2013-05-09 12:52:00,
2013-05-09 07:55:00,64.2,58.6,29.06,South,187,0.0,0.0,82,0.00,,---,0.00,VWS V14.00,2013-05-09 12:55:00,
2013-05-09 07:58:00,64.2,58.6,29.06,South,187,0.0,0.0,82,0.00,,---,0.00,VWS V14.00,2013-05-09 12:58:00,
2013-05-09 08:01:00,64.0,58.4,29.06,South,187,0.0,0.0,82,0.00,,---,0.00,VWS V14.00,2013-05-09 13:01:00,
2013-05-09 08:05:00,64.2,58.3,29.09,South,187,0.0,0.0,81,0.00,,---,0.00,VWS V14.00,2013-05-09 13:05:00,
2013-05-09 08:07:00,64.2,58.3,29.09,South,187,0.0,0.0,81,0.00,,---,0.00,VWS V14.00,2013-05-09 13:07:00,
2013-05-09 08:10:00,64.2,58.6,29.09,South,187,0.0,0.0,82,0.00,,---,0.00,VWS V14.00,2013-05-09 13:10:00,
2013-05-09 08:13:00,64.2,58.6,29.09,South,187,0.0,0.0,82,0.00,,---,0.00,VWS V14.00,2013-05-09 13:13:00,
2013-05-09 08:16:00,63.8,58.9,29.09,South,187,0.0,0.0,84,0.04,,---,0.04,VWS V14.00,2013-05-09 13:16:00,
2013-05-09 08:19:00,63.5,59.2,29.09,South,187,0.0,0.0,86,0.04,,---,0.04,VWS V14.00,2013-05-09 13:19:00,
2013-05-09 08:22:00,63.1,58.9,29.09,North,10,0.0,0.0,86,0.12,,---,0.12,VWS V14.00,2013-05-09 13:22:00,
2013-05-09 08:28:00,63.3,59.7,29.09,East,99,0.0,4.0,88,0.12,,---,0.12,VWS V14.00,2013-05-09 13:28:00,
2013-05-09 08:34:00,63.7,60.0,29.09,SSE,158,0.0,4.0,88,0.12,,---,0.12,VWS V14.00,2013-05-09 13:34:00,
2013-05-09 08:36:00,63.7,60.0,29.09,SSE,158,0.0,4.0,88,0.12,,---,0.12,VWS V14.00,2013-05-09 13:36:00,
2013-05-09 08:37:00,63.8,60.2,29.09,SSE,158,4.0,4.0,88,0.12,,---,0.12,VWS V14.00,2013-05-09 13:37:00,
2013-05-09 08:40:00,64.0,60.7,29.09,South,179,2.7,4.0,89,0.12,,---,0.12,VWS V14.00,2013-05-09 13:40:00,
2013-05-09 08:43:00,64.2,60.6,29.09,South,178,3.6,4.0,88,0.12,,---,0.12,VWS V14.00,2013-05-09 13:43:00,
2013-05-09 08:46:00,64.4,60.8,29.09,South,178,2.2,4.0,88,0.12,,---,0.12,VWS V14.00,2013-05-09 13:46:00,
2013-05-09 08:52:00,64.6,60.9,29.09,SE,137,0.0,3.1,88,0.12,,---,0.12,VWS V14.00,2013-05-09 13:52:00,
2013-05-09 08:55:00,64.6,60.9,29.09,SE,138,0.0,3.1,88,0.16,,---,0.16,VWS V14.00,2013-05-09 13:55:00,
2013-05-09 08:58:00,64.7,60.8,29.09,SE,138,0.0,3.1,87,0.16,,---,0.16,VWS V14.00,2013-05-09 13:58:00,
2013-05-09 09:01:00,64.9,61.0,29.09,SE,138,0.0,3.1,87,0.16,,---,0.16,VWS V14.00,2013-05-09 14:01:00,
2013-05-09 09:05:00,65.1,61.1,29.09,SE,138,0.0,3.1,87,0.16,,---,0.16,VWS V14.00,2013-05-09 14:05:00,
2013-05-09 09:07:00,65.1,61.5,29.09,SE,138,0.0,0.0,88,0.16,,---,0.16,VWS V14.00,2013-05-09 14:07:00,
2013-05-09 09:13:00,65.6,62.0,29.09,SSE,151,0.0,0.0,88,0.16,,---,0.16,VWS V14.00,2013-05-09 14:13:00,
2013-05-09 09:16:00,66.0,62.3,29.09,SSE,151,0.0,0.0,88,0.16,,---,0.16,VWS V14.00,2013-05-09 14:16:00,
2013-05-09 09:22:00,66.2,62.2,29.09,SSE,167,0.0,2.2,87,0.12,,---,0.16,VWS V14.00,2013-05-09 14:22:00,
2013-05-09 09:25:00,66.4,62.0,29.09,South,174,0.0,2.2,86,0.12,,---,0.16,VWS V14.00,2013-05-09 14:25:00,
2013-05-09 09:28:00,66.4,62.0,29.09,South,174,0.0,2.2,86,0.12,,---,0.16,VWS V14.00,2013-05-09 14:28:00,
2013-05-09 09:31:00,66.4,62.0,29.09,South,174,0.0,2.2,86,0.12,,---,0.16,VWS V14.00,2013-05-09 14:31:00,
2013-05-09 09:34:00,66.4,62.0,29.09,South,174,0.0,2.2,86,0.12,,---,0.16,VWS V14.00,2013-05-09 14:34:00,
2013-05-09 09:36:00,66.4,62.0,29.09,South,174,0.0,2.2,86,0.12,,---,0.16,VWS V14.00,2013-05-09 14:36:00,
2013-05-09 09:37:00,66.5,62.2,29.09,South,174,0.0,0.0,86,0.04,,---,0.16,VWS V14.00,2013-05-09 14:37:00,
2013-05-09 09:43:00,66.9,62.6,29.09,South,174,0.0,0.0,86,0.04,,---,0.16,VWS V14.00,2013-05-09 14:43:00,
2013-05-09 09:46:00,66.9,62.6,29.06,South,175,0.0,0.0,86,0.04,,---,0.16,VWS V14.00,2013-05-09 14:46:00,
2013-05-09 09:49:00,67.1,62.4,29.06,South,175,0.0,0.0,85,0.04,,---,0.16,VWS V14.00,2013-05-09 14:49:00,
2013-05-09 09:55:00,67.6,62.6,29.06,South,176,3.6,3.6,84,0.04,,---,0.16,VWS V14.00,2013-05-09 14:55:00,
2013-05-09 09:58:00,67.8,62.1,29.06,SSE,153,3.6,3.6,82,0.04,,---,0.16,VWS V14.00,2013-05-09 14:58:00,
2013-05-09 10:01:00,68.0,61.9,29.09,SSE,156,2.2,4.0,81,0.04,,---,0.16,VWS V14.00,2013-05-09 15:01:00,
2013-05-09 10:04:00,68.0,61.6,29.09,SE,146,3.6,4.0,80,0.04,,---,0.16,VWS V14.00,2013-05-09 15:04:00,
2013-05-09 10:05:00,68.2,61.8,29.09,SSE,167,3.1,4.0,80,0.04,,---,0.16,VWS V14.00,2013-05-09 15:05:00,
2013-05-09 10:07:00,68.2,61.8,29.09,SSE,168,0.0,3.1,80,0.00,,---,0.16,VWS V14.00,2013-05-09 15:07:00,
2013-05-09 10:10:00,68.3,61.9,29.09,SSE,162,0.0,3.6,80,0.00,,---,0.16,VWS V14.00,2013-05-09 15:10:00,
2013-05-09 10:13:00,68.3,61.6,29.09,SE,143,0.0,3.6,79,0.00,,---,0.16,VWS V14.00,2013-05-09 15:13:00,
2013-05-09 10:16:00,68.3,61.2,29.09,SE,133,0.0,4.0,78,0.00,,---,0.16,VWS V14.00,2013-05-09 15:16:00,
2013-05-09 10:19:00,68.5,60.7,29.09,SSE,162,0.0,4.0,76,0.00,,---,0.16,VWS V14.00,2013-05-09 15:19:00,
2013-05-09 10:20:00,68.5,60.7,29.09,SSE,162,0.0,4.0,76,0.00,,---,0.16,VWS V14.00,2013-05-09 15:20:00,
2013-05-09 10:25:00,68.7,60.1,29.09,South,173,0.0,2.2,74,0.00,,---,0.16,VWS V14.00,2013-05-09 15:25:00,
2013-05-09 10:28:00,68.9,59.9,29.09,SSW,207,0.0,4.0,73,0.00,,---,0.16,VWS V14.00,2013-05-09 15:28:00,
2013-05-09 10:31:00,69.2,59.8,29.06,SSE,151,0.0,4.0,72,0.00,,---,0.16,VWS V14.00,2013-05-09 15:31:00,
2013-05-09 10:34:00,69.4,59.6,29.06,South,186,0.0,4.0,71,0.00,,---,0.16,VWS V14.00,2013-05-09 15:34:00,
2013-05-09 10:36:00,69.6,59.8,29.06,ESE,104,0.0,4.0,71,0.00,,---,0.16,VWS V14.00,2013-05-09 15:36:00,
2013-05-09 10:37:00,69.8,59.6,29.06,SSE,153,2.2,3.1,70,0.00,,---,0.16,VWS V14.00,2013-05-09 15:37:00,
2013-05-09 10:40:00,70.0,59.3,29.06,SE,143,2.2,4.0,69,0.00,,---,0.16,VWS V14.00,2013-05-09 15:40:00,
2013-05-09 10:46:00,70.3,58.4,29.03,SSE,150,8.1,8.7,66,0.00,,---,0.16,VWS V14.00,2013-05-09 15:46:00,
2013-05-09 10:49:00,70.3,58.0,29.03,SSE,163,8.7,8.7,65,0.00,,---,0.16,VWS V14.00,2013-05-09 15:49:00,
2013-05-09 10:50:00,70.3,58.0,29.03,SSE,158,5.4,8.7,65,0.00,,---,0.16,VWS V14.00,2013-05-09 15:50:00,
2013-05-09 10:55:00,70.5,57.8,29.03,SSE,152,4.9,6.3,64,0.00,,---,0.16,VWS V14.00,2013-05-09 15:55:00,
2013-05-09 11:01:00,71.2,58.0,29.03,South,184,5.4,6.3,63,0.00,,---,0.16,VWS V14.00,2013-05-09 16:01:00,
2013-05-09 11:05:00,71.6,57.4,29.03,SSE,166,6.3,10.1,61,0.00,,---,0.16,VWS V14.00,2013-05-09 16:05:00,
2013-05-09 11:10:00,71.8,56.7,29.03,SSE,166,5.8,9.2,59,0.00,,---,0.16,VWS V14.00,2013-05-09 16:10:00,
2013-05-09 11:13:00,71.9,56.8,29.03,SSE,152,2.7,9.2,59,0.00,,---,0.16,VWS V14.00,2013-05-09 16:13:00,
2013-05-09 11:16:00,72.1,57.0,29.03,South,171,4.5,9.2,59,0.00,,---,0.16,VWS V14.00,2013-05-09 16:16:00,
2013-05-09 11:19:00,72.3,57.2,29.03,South,169,2.2,9.2,59,0.00,,---,0.16,VWS V14.00,2013-05-09 16:19:00,
2013-05-09 11:20:00,72.3,57.2,29.03,South,191,6.3,9.2,59,0.00,,---,0.16,VWS V14.00,2013-05-09 16:20:00,
2013-05-09 11:26:00,72.8,57.7,29.03,South,177,0.0,6.3,59,0.00,,---,0.16,VWS V14.00,2013-05-09 16:26:00,
2013-05-09 11:29:00,73.2,58.0,29.03,SSE,168,0.0,6.3,59,0.00,,---,0.16,VWS V14.00,2013-05-09 16:29:00,
2013-05-09 11:32:00,73.6,58.4,29.03,SSE,160,2.7,6.3,59,0.00,,---,0.16,VWS V14.00,2013-05-09 16:32:00,
2013-05-09 11:35:00,74.1,58.4,29.03,South,172,4.0,6.3,58,0.00,,---,0.16,VWS V14.00,2013-05-09 16:35:00,
2013-05-09 11:36:00,74.3,58.6,29.03,SSE,154,3.6,6.3,58,0.00,,---,0.16,VWS V14.00,2013-05-09 16:36:00,
2013-05-09 11:38:00,74.5,58.2,29.03,South,177,2.2,4.0,57,0.00,,---,0.16,VWS V14.00,2013-05-09 16:38:00,
2013-05-09 11:41:00,74.6,56.9,29.03,South,176,3.1,4.0,54,0.00,,---,0.16,VWS V14.00,2013-05-09 16:41:00,
2013-05-09 11:44:00,75.0,57.2,29.03,South,177,0.0,4.0,54,0.00,,---,0.16,VWS V14.00,2013-05-09 16:44:00,
2013-05-09 11:47:00,75.7,58.9,29.03,SSE,167,3.1,4.0,56,0.00,,---,0.16,VWS V14.00,2013-05-09 16:47:00,
2013-05-09 11:50:00,76.3,57.9,29.03,South,180,3.6,4.9,53,0.00,,---,0.16,VWS V14.00,2013-05-09 16:50:00,
2013-05-09 11:53:00,76.6,58.2,29.03,SW,226,4.9,4.9,53,0.00,,---,0.16,VWS V14.00,2013-05-09 16:53:00,
2013-05-09 11:59:00,76.4,56.4,29.03,South,177,0.0,5.4,50,0.00,,---,0.16,VWS V14.00,2013-05-09 16:59:00,
2013-05-09 12:02:00,76.3,56.3,29.03,SW,218,0.0,5.4,50,0.00,,---,0.16,VWS V14.00,2013-05-09 17:02:00,
2013-05-09 12:06:00,75.9,55.4,29.03,SW,218,0.0,5.4,49,0.00,,---,0.16,VWS V14.00,2013-05-09 17:06:00,
2013-05-09 12:11:00,75.7,55.8,29.03,WSW,243,0.0,0.0,50,0.00,,---,0.16,VWS V14.00,2013-05-09 17:11:00,
2013-05-09 12:14:00,75.9,57.0,29.03,NW,325,0.0,2.2,52,0.00,,---,0.16,VWS V14.00,2013-05-09 17:14:00,
2013-05-09 12:20:00,76.3,56.3,29.03,NNW,337,0.0,2.2,50,0.00,,---,0.16,VWS V14.00,2013-05-09 17:20:00,
2013-05-09 12:23:00,76.4,55.9,29.03,NNW,332,0.0,0.0,49,0.00,,---,0.16,VWS V14.00,2013-05-09 17:23:00,
2013-05-09 12:26:00,76.6,55.5,29.03,WSW,249,0.0,2.2,48,0.00,,---,0.16,VWS V14.00,2013-05-09 17:26:00,
2013-05-09 12:32:00,77.2,56.0,29.03,West,273,0.0,2.2,48,0.00,,---,0.16,VWS V14.00,2013-05-09 17:32:00,
2013-05-09 12:35:00,77.5,56.3,29.03,WNW,291,0.0,2.2,48,0.00,,---,0.16,VWS V14.00,2013-05-09 17:35:00,
2013-05-09 12:36:00,77.5,56.9,29.03,WNW,293,0.0,2.2,49,0.00,,---,0.16,VWS V14.00,2013-05-09 17:36:00,
2013-05-09 12:38:00,77.3,56.7,29.03,North,0,0.0,0.0,49,0.00,,---,0.16,VWS V14.00,2013-05-09 17:38:00,
2013-05-09 12:41:00,77.3,56.7,29.03,West,265,0.0,0.0,49,0.00,,---,0.16,VWS V14.00,2013-05-09 17:41:00,
2013-05-09 12:44:00,77.3,56.1,29.03,NNE,19,0.0,0.0,48,0.00,,---,0.16,VWS V14.00,2013-05-09 17:44:00,
2013-05-09 12:50:00,77.2,56.5,29.03,North,3,0.0,0.0,49,0.00,,---,0.16,VWS V14.00,2013-05-09 17:50:00,
2013-05-09 12:56:00,77.2,57.1,29.03,NNE,14,0.0,0.0,50,0.00,,---,0.16,VWS V14.00,2013-05-09 17:56:00,
2013-05-09 12:59:00,77.3,57.8,29.03,NNE,14,0.0,0.0,51,0.00,,---,0.16,VWS V14.00,2013-05-09 17:59:00,
2013-05-09 13:02:00,77.9,58.3,29.03,NNE,22,0.0,0.0,51,0.00,,---,0.16,VWS V14.00,2013-05-09 18:02:00,
2013-05-09 13:05:00,78.2,58.7,29.03,NNE,22,0.0,0.0,51,0.00,,---,0.16,VWS V14.00,2013-05-09 18:05:00,
2013-05-09 13:06:00,78.4,59.4,29.03,NNE,22,0.0,0.0,52,0.00,,---,0.16,VWS V14.00,2013-05-09 18:06:00,
2013-05-09 13:08:00,78.8,59.1,29.03,NNE,22,0.0,0.0,51,0.00,,---,0.16,VWS V14.00,2013-05-09 18:08:00,
2013-05-09 13:11:00,79.0,58.8,29.03,NNE,22,0.0,0.0,50,0.00,,---,0.16,VWS V14.00,2013-05-09 18:11:00,
2013-05-09 13:14:00,79.1,58.4,29.03,NNE,22,0.0,0.0,49,0.00,,---,0.16,VWS V14.00,2013-05-09 18:14:00,
2013-05-09 13:17:00,79.5,58.7,29.03,NNE,22,0.0,0.0,49,0.00,,---,0.16,VWS V14.00,2013-05-09 18:17:00,
2013-05-09 13:23:00,79.5,57.5,29.03,NNE,22,0.0,0.0,47,0.00,,---,0.16,VWS V14.00,2013-05-09 18:23:00,
2013-05-09 13:26:00,79.7,57.1,29.03,NNE,22,0.0,0.0,46,0.00,,---,0.16,VWS V14.00,2013-05-09 18:26:00,
2013-05-09 13:29:00,80.0,58.0,29.03,NNE,22,0.0,0.0,47,0.00,,---,0.16,VWS V14.00,2013-05-09 18:29:00,
2013-05-09 13:32:00,80.4,57.8,29.03,NNW,346,0.0,3.1,46,0.00,,---,0.16,VWS V14.00,2013-05-09 18:32:00,
2013-05-09 13:35:00,80.8,58.7,29.03,NNW,343,0.0,3.1,47,0.00,,---,0.16,VWS V14.00,2013-05-09 18:35:00,
2013-05-09 13:36:00,80.8,58.7,29.03,NNW,344,0.0,3.1,47,0.00,,---,0.16,VWS V14.00,2013-05-09 18:36:00,
2013-05-09 13:38:00,80.9,59.4,29.03,North,0,0.0,0.0,48,0.00,,---,0.16,VWS V14.00,2013-05-09 18:38:00,
2013-05-09 13:44:00,80.9,58.2,29.03,NNW,329,0.0,3.1,46,0.00,,---,0.16,VWS V14.00,2013-05-09 18:44:00,
2013-05-09 13:47:00,80.6,57.9,29.03,NNW,345,0.0,3.1,46,0.00,,---,0.16,VWS V14.00,2013-05-09 18:47:00,
2013-05-09 13:50:00,80.0,58.0,29.03,North,0,0.0,3.1,47,0.00,,---,0.16,VWS V14.00,2013-05-09 18:50:00,
2013-05-09 13:53:00,79.7,57.7,29.03,West,273,0.0,0.0,47,0.00,,---,0.16,VWS V14.00,2013-05-09 18:53:00,
2013-05-09 13:56:00,79.7,57.7,29.03,NNW,330,0.0,0.0,47,0.00,,---,0.16,VWS V14.00,2013-05-09 18:56:00,
2013-05-09 13:59:00,79.7,57.1,29.03,NNW,339,0.0,2.2,46,0.00,,---,0.16,VWS V14.00,2013-05-09 18:59:00,
2013-05-09 14:05:00,79.9,57.8,29.03,North,357,0.0,2.2,47,0.00,,---,0.16,VWS V14.00,2013-05-09 19:05:00,
2013-05-09 14:08:00,80.6,57.3,29.03,North,357,0.0,2.2,45,0.00,,---,0.16,VWS V14.00,2013-05-09 19:08:00,
2013-05-09 14:11:00,80.9,57.0,29.03,North,353,0.0,2.7,44,0.00,,---,0.16,VWS V14.00,2013-05-09 19:11:00,
2013-05-09 14:17:00,81.3,56.7,29.00,North,353,2.7,3.1,43,0.00,,---,0.16,VWS V14.00,2013-05-09 19:17:00,
2013-05-09 14:20:00,81.7,56.4,29.00,NNW,348,0.0,3.1,42,0.00,,---,0.16,VWS V14.00,2013-05-09 19:20:00,
2013-05-09 14:23:00,82.6,57.2,29.00,NNW,343,3.6,3.6,42,0.00,,---,0.16,VWS V14.00,2013-05-09 19:23:00,
2013-05-09 14:26:00,82.9,56.8,29.00,NNW,346,0.0,3.6,41,0.00,,---,0.16,VWS V14.00,2013-05-09 19:26:00,
2013-05-09 14:32:00,82.7,56.7,29.03,NNW,331,0.0,3.6,41,0.00,,---,0.16,VWS V14.00,2013-05-09 19:32:00,
2013-05-09 14:35:00,83.1,57.0,29.03,NNW,346,0.0,3.6,41,0.00,,---,0.16,VWS V14.00,2013-05-09 19:35:00,
2013-05-09 14:36:00,83.3,56.5,29.03,NNW,346,0.0,3.6,40,0.00,,---,0.16,VWS V14.00,2013-05-09 19:36:00,
2013-05-09 14:38:00,83.5,56.6,29.03,North,353,0.0,0.0,40,0.00,,---,0.16,VWS V14.00,2013-05-09 19:38:00,
2013-05-09 14:41:00,83.5,56.6,29.03,North,353,0.0,2.7,40,0.00,,---,0.16,VWS V14.00,2013-05-09 19:41:00,
2013-05-09 14:44:00,83.3,57.2,29.03,North,0,2.2,3.1,41,0.00,,---,0.16,VWS V14.00,2013-05-09 19:44:00,
2013-05-09 14:47:00,83.5,56.6,29.00,NNW,328,0.0,3.1,40,0.00,,---,0.16,VWS V14.00,2013-05-09 19:47:00,
2013-05-09 14:51:00,83.5,56.6,29.00,NNW,344,0.0,3.1,40,0.00,,---,0.16,VWS V14.00,2013-05-09 19:51:00,
2013-05-09 14:53:00,83.6,56.8,29.00,NNW,346,0.0,0.0,40,0.00,,---,0.16,VWS V14.00,2013-05-09 19:53:00,
2013-05-09 14:59:00,83.6,56.1,29.00,NNW,337,0.0,3.6,39,0.00,,---,0.16,VWS V14.00,2013-05-09 19:59:00,
2013-05-09 15:02:00,83.8,56.2,28.97,NW,317,0.0,3.6,39,0.00,,---,0.16,VWS V14.00,2013-05-09 20:02:00,
2013-05-09 15:05:00,84.0,56.4,28.97,North,353,0.0,3.6,39,0.00,,---,0.16,VWS V14.00,2013-05-09 20:05:00,
2013-05-09 15:06:00,84.2,56.6,28.97,North,353,0.0,3.6,39,0.00,,---,0.16,VWS V14.00,2013-05-09 20:06:00,
2013-05-09 15:08:00,84.4,56.7,28.97,North,353,2.2,2.2,39,0.00,,---,0.16,VWS V14.00,2013-05-09 20:08:00,
2013-05-09 15:11:00,84.2,56.6,28.97,NNW,344,0.0,2.2,39,0.00,,---,0.16,VWS V14.00,2013-05-09 20:11:00,
2013-05-09 15:14:00,83.8,56.2,28.97,NNW,345,0.0,2.2,39,0.00,,---,0.16,VWS V14.00,2013-05-09 20:14:00,
2013-05-09 15:20:00,83.5,55.9,29.00,NNW,342,0.0,2.2,39,0.00,,---,0.16,VWS V14.00,2013-05-09 20:20:00,
2013-05-09 15:21:00,83.5,55.9,29.00,NNW,342,0.0,2.2,39,0.00,,---,0.16,VWS V14.00,2013-05-09 20:21:00,
2013-05-09 15:23:00,83.6,56.1,29.00,NNW,342,0.0,0.0,39,0.00,,---,0.16,VWS V14.00,2013-05-09 20:23:00,
2013-05-09 15:29:00,84.2,56.6,29.00,NNW,340,0.0,0.0,39,0.00,,---,0.16,VWS V14.00,2013-05-09 20:29:00,
2013-05-09 15:32:00,83.8,56.2,29.00,NNW,340,0.0,0.0,39,0.00,,---,0.16,VWS V14.00,2013-05-09 20:32:00,
2013-05-09 15:35:00,83.6,56.8,29.00,NNW,339,0.0,0.0,40,0.00,,---,0.16,VWS V14.00,2013-05-09 20:35:00,
2013-05-09 15:38:00,83.6,56.8,29.00,NNW,339,0.0,0.0,40,0.00,,---,0.16,VWS V14.00,2013-05-09 20:38:00,
2013-05-09 15:41:00,83.8,57.0,29.00,NNW,339,0.0,0.0,40,0.00,,---,0.16,VWS V14.00,2013-05-09 20:41:00,
2013-05-09 15:44:00,84.5,57.6,29.00,NNW,339,0.0,0.0,40,0.00,,---,0.16,VWS V14.00,2013-05-09 20:44:00,
2013-05-09 15:47:00,84.9,57.9,29.00,NNW,339,0.0,0.0,40,0.00,,---,0.16,VWS V14.00,2013-05-09 20:47:00,
2013-05-09 15:51:00,85.4,57.0,29.00,NNW,339,0.0,0.0,38,0.00,,---,0.16,VWS V14.00,2013-05-09 20:51:00,
2013-05-09 15:53:00,85.6,57.1,29.00,NNW,339,0.0,0.0,38,0.00,,---,0.16,VWS V14.00,2013-05-09 20:53:00,
2013-05-09 15:56:00,85.6,56.4,29.00,NNW,339,0.0,0.0,37,0.00,,---,0.16,VWS V14.00,2013-05-09 20:56:00,
2013-05-09 15:59:00,85.8,55.8,29.00,NNW,339,0.0,0.0,36,0.00,,---,0.16,VWS V14.00,2013-05-09 20:59:00,
2013-05-09 16:02:00,85.8,55.8,29.00,NNW,339,0.0,0.0,36,0.00,,---,0.16,VWS V14.00,2013-05-09 21:02:00,
2013-05-09 16:05:00,86.3,55.5,29.00,NNW,327,0.0,0.0,35,0.00,,---,0.16,VWS V14.00,2013-05-09 21:05:00,
2013-05-09 16:06:00,86.3,55.5,29.00,SSE,153,0.0,2.7,35,0.00,,---,0.16,VWS V14.00,2013-05-09 21:06:00,
2013-05-09 16:08:00,86.9,56.7,29.00,SSE,153,0.0,0.0,36,0.00,,---,0.16,VWS V14.00,2013-05-09 21:08:00,
2013-05-09 16:14:00,87.4,55.6,29.00,SSE,153,0.0,0.0,34,0.00,,---,0.16,VWS V14.00,2013-05-09 21:14:00,
2013-05-09 16:17:00,87.6,55.8,29.00,SSE,153,0.0,0.0,34,0.00,,---,0.16,VWS V14.00,2013-05-09 21:17:00,
2013-05-09 16:20:00,88.0,55.3,29.00,SSE,153,0.0,0.0,33,0.00,,---,0.16,VWS V14.00,2013-05-09 21:20:00,
2013-05-09 16:23:00,88.1,56.3,29.00,SSE,153,0.0,0.0,34,0.00,,---,0.16,VWS V14.00,2013-05-09 21:23:00,
2013-05-09 16:26:00,88.5,57.4,29.00,SSE,153,0.0,0.0,35,0.00,,---,0.16,VWS V14.00,2013-05-09 21:26:00,
2013-05-09 16:29:00,88.7,56.7,29.00,SSE,153,0.0,2.2,34,0.00,,---,0.16,VWS V14.00,2013-05-09 21:29:00,
2013-05-09 16:32:00,89.0,57.0,29.00,SSE,153,0.0,2.2,34,0.00,,---,0.16,VWS V14.00,2013-05-09 21:32:00,
2013-05-09 16:35:00,88.7,55.9,29.00,SSE,153,0.0,3.6,33,0.00,,---,0.16,VWS V14.00,2013-05-09 21:35:00,
2013-05-09 16:41:00,88.7,55.9,29.00,SSW,205,4.9,5.4,33,0.00,,---,0.16,VWS V14.00,2013-05-09 21:41:00,
2013-05-09 16:44:00,89.4,56.5,29.00,SSW,205,0.0,5.4,33,0.00,,---,0.16,VWS V14.00,2013-05-09 21:44:00,
2013-05-09 16:50:00,91.2,57.2,29.00,SSW,193,4.0,7.6,32,0.00,,---,0.16,VWS V14.00,2013-05-09 21:50:00,
2013-05-09 16:53:00,91.7,57.7,29.00,SSE,168,5.8,6.3,32,0.00,,---,0.16,VWS V14.00,2013-05-09 21:53:00,
2013-05-09 16:59:00,92.3,57.3,29.00,SE,137,3.6,6.3,31,0.00,,---,0.16,VWS V14.00,2013-05-09 21:59:00,
2013-05-09 17:02:00,92.1,57.2,29.00,South,183,4.0,6.3,31,0.00,,---,0.16,VWS V14.00,2013-05-09 22:02:00,
2013-05-09 17:05:00,91.6,56.7,29.00,SSE,165,3.6,6.3,31,0.00,,---,0.16,VWS V14.00,2013-05-09 22:05:00,
2013-05-09 17:06:00,91.6,56.7,29.00,SSE,152,2.7,6.3,31,0.00,,---,0.16,VWS V14.00,2013-05-09 22:06:00,
2013-05-09 17:11:00,90.5,55.8,29.00,SSE,166,2.2,8.3,31,0.00,,---,0.16,VWS V14.00,2013-05-09 22:11:00,
2013-05-09 17:14:00,89.4,54.8,29.00,SE,125,5.4,8.3,31,0.00,,---,0.16,VWS V14.00,2013-05-09 22:14:00,
2013-05-09 17:17:00,88.3,53.9,28.97,SSE,148,4.0,8.3,31,0.00,,---,0.16,VWS V14.00,2013-05-09 22:17:00,
2013-05-09 17:20:00,87.4,54.0,28.97,South,185,3.6,8.3,32,0.00,,---,0.16,VWS V14.00,2013-05-09 22:20:00,
2013-05-09 17:23:00,86.5,53.2,28.97,SSE,167,3.1,4.9,32,0.00,,---,0.16,VWS V14.00,2013-05-09 22:23:00,
2013-05-09 17:29:00,84.9,52.6,28.97,South,180,4.9,10.5,33,0.00,,---,0.16,VWS V14.00,2013-05-09 22:29:00,
2013-05-09 17:32:00,84.4,52.2,29.00,SE,126,2.7,10.5,33,0.00,,---,0.16,VWS V14.00,2013-05-09 22:32:00,
2013-05-09 17:35:00,83.5,52.2,29.00,SE,130,3.6,10.5,34,0.00,,---,0.16,VWS V14.00,2013-05-09 22:35:00,
2013-05-09 17:38:00,82.9,51.7,29.00,SSE,161,4.9,5.8,34,0.00,,---,0.16,VWS V14.00,2013-05-09 22:38:00,
2013-05-09 17:44:00,81.7,51.4,29.00,SE,138,3.1,6.3,35,0.00,,---,0.16,VWS V14.00,2013-05-09 22:44:00,
2013-05-09 17:51:00,80.8,51.3,28.97,South,174,3.6,6.3,36,0.00,,---,0.16,VWS V14.00,2013-05-09 22:51:00,
2013-05-09 17:57:00,79.9,51.3,28.97,South,175,4.9,4.9,37,0.00,,---,0.16,VWS V14.00,2013-05-09 22:57:00,
2013-05-09 18:00:00,79.3,51.5,28.97,SE,144,3.6,4.9,38,0.00,,---,0.16,VWS V14.00,2013-05-09 23:00:00,
2013-05-09 18:03:00,79.0,51.9,28.97,SE,145,5.4,5.4,39,0.00,,---,0.16,VWS V14.00,2013-05-09 23:03:00,
2013-05-09 18:06:00,78.6,51.6,28.97,South,184,2.2,5.4,39,0.00,,---,0.12,VWS V14.00,2013-05-09 23:06:00,
2013-05-09 18:09:00,78.2,52.0,28.97,SSE,153,0.0,4.5,40,0.00,,---,0.16,VWS V14.00,2013-05-09 23:09:00,
2013-05-09 18:12:00,78.1,51.8,28.97,SSE,158,4.0,4.9,40,0.00,,---,0.16,VWS V14.00,2013-05-09 23:12:00,
2013-05-09 18:15:00,77.7,51.5,28.97,SSW,205,3.1,4.9,40,0.00,,---,0.16,VWS V14.00,2013-05-09 23:15:00,
2013-05-09 18:18:00,77.3,51.8,28.97,SSE,164,0.0,4.9,41,0.00,,---,0.16,VWS V14.00,2013-05-09 23:18:00,
2013-05-09 18:21:00,77.2,51.7,28.97,SSW,194,0.0,4.9,41,0.00,,---,0.16,VWS V14.00,2013-05-09 23:21:00,
2013-05-09 18:27:00,76.8,51.3,28.97,ESE,119,0.0,3.6,41,0.00,,---,0.16,VWS V14.00,2013-05-09 23:27:00,
2013-05-09 18:33:00,76.3,51.5,28.97,SW,226,0.0,3.6,42,0.00,,---,0.16,VWS V14.00,2013-05-09 23:33:00,
2013-05-09 18:36:00,76.3,52.2,28.97,SSE,161,0.0,0.0,43,0.00,,---,0.16,VWS V14.00,2013-05-09 23:36:00,
2013-05-09 18:39:00,75.9,51.8,28.97,SSW,203,0.0,0.0,43,0.00,,---,0.16,VWS V14.00,2013-05-09 23:39:00,
2013-05-09 18:42:00,75.7,51.7,28.97,SSE,156,0.0,0.0,43,0.00,,---,0.16,VWS V14.00,2013-05-09 23:42:00,
2013-05-09 18:45:00,75.5,52.1,28.97,SSE,156,0.0,0.0,44,0.00,,---,0.16,VWS V14.00,2013-05-09 23:45:00,
2013-05-09 18:48:00,75.4,52.0,29.00,SSE,156,0.0,0.0,44,0.00,,---,0.16,VWS V14.00,2013-05-09 23:48:00,
2013-05-09 18:51:00,75.2,51.8,29.00,SSE,156,0.0,0.0,44,0.00,,---,0.16,VWS V14.00,2013-05-09 23:51:00,
2013-05-09 18:54:00,75.0,52.2,29.00,SSE,156,0.0,0.0,45,0.00,,---,0.16,VWS V14.00,2013-05-09 23:54:00,
2013-05-09 18:57:00,74.8,52.7,29.00,SSW,196,0.0,2.2,46,0.00,,---,0.16,VWS V14.00,2013-05-09 23:57:00,
2013-05-09 19:00:00,74.6,52.5,29.00,SSW,200,0.0,2.2,46,0.00,,---,0.16,VWS V14.00,2013-05-10 00:00:00,
2013-05-09 19:06:00,74.5,52.9,29.00,SSW,200,0.0,2.2,47,0.00,,---,0.16,VWS V14.00,2013-05-10 00:06:00,
2013-05-09 19:09:00,74.3,52.8,29.00,SSW,200,0.0,0.0,47,0.00,,---,0.16,VWS V14.00,2013-05-10 00:09:00,
2013-05-09 19:12:00,74.3,52.8,29.00,SSW,200,0.0,0.0,47,0.00,,---,0.16,VWS V14.00,2013-05-10 00:12:00,
2013-05-09 19:18:00,74.1,53.2,29.00,SSW,213,0.0,2.7,48,0.00,,---,0.16,VWS V14.00,2013-05-10 00:18:00,
2013-05-09 19:21:00,73.7,52.8,29.00,SSW,213,0.0,2.7,48,0.00,,---,0.16,VWS V14.00,2013-05-10 00:21:00,
2013-05-09 19:24:00,73.6,53.8,29.00,SSW,213,0.0,0.0,50,0.00,,---,0.16,VWS V14.00,2013-05-10 00:24:00,
2013-05-09 19:27:00,73.2,54.0,29.00,SSW,213,0.0,0.0,51,0.00,,---,0.16,VWS V14.00,2013-05-10 00:27:00,
2013-05-09 19:30:00,72.8,54.7,29.00,SSW,213,0.0,0.0,53,0.00,,---,0.16,VWS V14.00,2013-05-10 00:30:00,
2013-05-09 19:33:00,72.7,54.6,29.00,SSW,213,0.0,0.0,53,0.00,,---,0.16,VWS V14.00,2013-05-10 00:33:00,
2013-05-09 19:35:00,72.5,54.9,29.00,SSW,213,0.0,0.0,54,0.00,,---,0.16,VWS V14.00,2013-05-10 00:35:00,
2013-05-09 19:39:00,72.3,55.2,29.00,SSW,213,0.0,0.0,55,0.00,,---,0.16,VWS V14.00,2013-05-10 00:39:00,
2013-05-09 19:42:00,72.1,55.1,29.00,SSW,213,0.0,0.0,55,0.00,,---,0.16,VWS V14.00,2013-05-10 00:42:00,
2013-05-09 19:45:00,72.1,55.1,29.00,South,169,0.0,3.1,55,0.00,,---,0.16,VWS V14.00,2013-05-10 00:45:00,
2013-05-09 19:48:00,71.9,55.4,29.00,South,189,0.0,3.1,56,0.00,,---,0.16,VWS V14.00,2013-05-10 00:48:00,
2013-05-09 19:51:00,71.9,55.4,29.00,ESE,123,0.0,0.0,56,0.00,,---,0.16,VWS V14.00,2013-05-10 00:51:00,
2013-05-09 19:54:00,71.9,55.9,29.00,ESE,123,0.0,0.0,57,0.00,,---,0.16,VWS V14.00,2013-05-10 00:54:00,
2013-05-09 19:57:00,71.9,56.4,29.00,SE,139,0.0,0.0,58,0.00,,---,0.16,VWS V14.00,2013-05-10 00:57:00,
2013-05-09 20:00:00,71.9,56.4,29.00,SSW,192,0.0,3.1,58,0.00,,---,0.16,VWS V14.00,2013-05-10 01:00:00,
2013-05-09 20:06:00,71.8,55.7,29.03,South,170,0.0,3.1,57,0.00,,---,0.16,VWS V14.00,2013-05-10 01:06:00,
2013-05-09 20:12:00,71.6,56.0,29.03,South,181,0.0,0.0,58,0.00,,---,0.16,VWS V14.00,2013-05-10 01:12:00,
2013-05-09 20:15:00,71.8,56.7,29.03,South,181,0.0,0.0,59,0.00,,---,0.16,VWS V14.00,2013-05-10 01:15:00,
2013-05-09 20:18:00,71.6,56.5,29.03,South,181,0.0,0.0,59,0.00,,---,0.16,VWS V14.00,2013-05-10 01:18:00,
2013-05-09 20:21:00,71.6,57.0,29.03,South,183,0.0,0.0,60,0.00,,---,0.16,VWS V14.00,2013-05-10 01:21:00,
2013-05-09 20:24:00,71.4,57.3,29.03,ENE,63,0.0,4.0,61,0.00,,---,0.16,VWS V14.00,2013-05-10 01:24:00,
2013-05-09 20:30:00,70.7,57.9,29.03,NNE,28,0.0,4.0,64,0.00,,---,0.16,VWS V14.00,2013-05-10 01:30:00,
2013-05-09 20:33:00,70.1,58.3,29.03,NE,50,0.0,4.0,66,0.00,,---,0.16,VWS V14.00,2013-05-10 01:33:00,
2013-05-09 20:36:00,70.0,58.5,29.03,WNW,303,0.0,4.0,67,0.00,,---,0.16,VWS V14.00,2013-05-10 01:36:00,
2013-05-09 20:39:00,69.4,58.8,29.03,North,353,0.0,3.1,69,0.00,,---,0.16,VWS V14.00,2013-05-10 01:39:00,
2013-05-09 20:42:00,69.1,58.9,29.03,SSW,196,0.0,3.1,70,0.00,,---,0.16,VWS V14.00,2013-05-10 01:42:00,
2013-05-09 20:45:00,69.1,58.9,29.03,SSW,196,0.0,3.1,70,0.00,,---,0.16,VWS V14.00,2013-05-10 01:45:00,
2013-05-09 20:48:00,68.7,59.3,29.03,SSW,196,0.0,3.1,72,0.00,,---,0.16,VWS V14.00,2013-05-10 01:48:00,
2013-05-09 20:51:00,68.3,59.4,29.03,SSW,197,0.0,3.1,73,0.00,,---,0.16,VWS V14.00,2013-05-10 01:51:00,
2013-05-09 20:54:00,68.2,59.6,29.03,SSW,197,0.0,0.0,74,0.00,,---,0.16,VWS V14.00,2013-05-10 01:54:00,
2013-05-09 20:57:00,68.0,59.8,29.03,SSW,197,0.0,0.0,75,0.00,,---,0.16,VWS V14.00,2013-05-10 01:57:00,
2013-05-09 21:00:00,67.8,60.0,29.03,SW,224,2.7,3.6,76,0.00,,---,0.16,VWS V14.00,2013-05-10 02:00:00,
2013-05-09 21:03:00,67.6,60.2,29.06,WSW,244,0.0,3.6,77,0.00,,---,0.16,VWS V14.00,2013-05-10 02:03:00,
2013-05-09 21:06:00,67.4,60.3,29.06,NNE,27,0.0,3.6,78,0.00,,---,0.16,VWS V14.00,2013-05-10 02:06:00,
2013-05-09 21:09:00,67.4,60.3,29.06,NNE,27,0.0,0.0,78,0.00,,---,0.16,VWS V14.00,2013-05-10 02:09:00,
2013-05-09 21:12:00,67.3,60.5,29.06,NNE,27,0.0,0.0,79,0.00,,---,0.16,VWS V14.00,2013-05-10 02:12:00,
2013-05-09 21:18:00,67.3,60.9,29.03,NNE,27,0.0,0.0,80,0.00,,---,0.16,VWS V14.00,2013-05-10 02:18:00,
2013-05-09 21:20:00,67.3,60.9,29.03,NNE,27,0.0,0.0,80,0.00,,---,0.16,VWS V14.00,2013-05-10 02:20:00,
2013-05-09 21:21:00,67.3,60.5,29.03,NNE,27,0.0,0.0,79,0.00,,---,0.16,VWS V14.00,2013-05-10 02:21:00,
2013-05-09 21:24:00,67.1,60.4,29.03,NNE,27,0.0,0.0,79,0.00,,---,0.16,VWS V14.00,2013-05-10 02:24:00,
2013-05-09 21:30:00,66.7,60.0,29.06,North,11,0.0,3.1,79,0.00,,---,0.16,VWS V14.00,2013-05-10 02:30:00,
2013-05-09 21:36:00,66.4,59.7,29.06,SSW,212,0.0,3.1,79,0.00,,---,0.16,VWS V14.00,2013-05-10 02:36:00,
2013-05-09 21:42:00,66.0,59.7,29.06,NNE,30,0.0,0.0,80,0.00,,---,0.16,VWS V14.00,2013-05-10 02:42:00,
2013-05-09 21:45:00,65.8,59.8,29.06,NNE,30,0.0,0.0,81,0.00,,---,0.16,VWS V14.00,2013-05-10 02:45:00,
2013-05-09 21:51:00,65.8,60.2,29.03,NNE,30,0.0,0.0,82,0.00,,---,0.16,VWS V14.00,2013-05-10 02:51:00,
2013-05-09 21:54:00,65.6,60.0,29.03,NNE,30,0.0,0.0,82,0.00,,---,0.16,VWS V14.00,2013-05-10 02:54:00,
2013-05-09 21:57:00,65.8,60.2,29.03,NNE,30,0.0,0.0,82,0.00,,---,0.16,VWS V14.00,2013-05-10 02:57:00,
2013-05-09 22:00:00,65.6,60.0,29.03,NNE,30,0.0,0.0,82,0.00,,---,0.16,VWS V14.00,2013-05-10 03:00:00,
2013-05-09 22:03:00,65.6,60.0,29.03,NNE,30,0.0,0.0,82,0.00,,---,0.16,VWS V14.00,2013-05-10 03:03:00,
2013-05-09 22:06:00,65.6,60.0,29.03,NNE,30,0.0,0.0,82,0.00,,---,0.16,VWS V14.00,2013-05-10 03:06:00,
2013-05-09 22:09:00,65.6,60.0,29.03,NNE,30,0.0,0.0,82,0.00,,---,0.16,VWS V14.00,2013-05-10 03:09:00,
2013-05-09 22:12:00,65.5,59.8,29.03,NNE,30,0.0,0.0,82,0.00,,---,0.16,VWS V14.00,2013-05-10 03:12:00,
2013-05-09 22:15:00,65.3,60.0,29.03,NNE,30,0.0,0.0,83,0.00,,---,0.16,VWS V14.00,2013-05-10 03:15:00,
2013-05-09 22:18:00,65.3,60.0,29.03,NNE,30,0.0,0.0,83,0.00,,---,0.16,VWS V14.00,2013-05-10 03:18:00,
2013-05-09 22:20:00,65.3,60.0,29.03,NNE,30,0.0,0.0,83,0.00,,---,0.16,VWS V14.00,2013-05-10 03:20:00,
2013-05-09 22:24:00,65.3,60.0,29.03,NNE,30,0.0,0.0,83,0.00,,---,0.16,VWS V14.00,2013-05-10 03:24:00,
2013-05-09 22:27:00,65.3,59.7,29.03,NNE,30,0.0,0.0,82,0.00,,---,0.16,VWS V14.00,2013-05-10 03:27:00,
2013-05-09 22:30:00,65.1,59.5,29.03,NNE,30,0.0,0.0,82,0.00,,---,0.16,VWS V14.00,2013-05-10 03:30:00,
2013-05-09 22:33:00,65.1,59.8,29.03,NNE,30,0.0,0.0,83,0.00,,---,0.16,VWS V14.00,2013-05-10 03:33:00,
2013-05-09 22:36:00,64.9,59.3,29.03,WSW,252,0.0,2.7,82,0.00,,---,0.16,VWS V14.00,2013-05-10 03:36:00,
2013-05-09 22:42:00,64.7,59.1,29.03,South,186,0.0,3.1,82,0.00,,---,0.16,VWS V14.00,2013-05-10 03:42:00,
2013-05-09 22:45:00,64.7,59.1,29.03,South,186,0.0,3.1,82,0.00,,---,0.16,VWS V14.00,2013-05-10 03:45:00,
2013-05-09 22:48:00,64.7,59.1,29.03,South,186,0.0,3.1,82,0.00,,---,0.16,VWS V14.00,2013-05-10 03:48:00,
2013-05-09 22:51:00,64.6,59.0,29.03,South,186,0.0,3.1,82,0.00,,---,0.16,VWS V14.00,2013-05-10 03:51:00,
2013-05-09 22:57:00,64.4,58.8,29.03,South,186,0.0,0.0,82,0.00,,---,0.16,VWS V14.00,2013-05-10 03:57:00,
2013-05-09 23:00:00,64.2,58.6,29.03,South,186,0.0,0.0,82,0.00,,---,0.16,VWS V14.00,2013-05-10 04:00:00,
2013-05-09 23:03:00,64.2,58.6,29.03,South,186,0.0,0.0,82,0.00,,---,0.16,VWS V14.00,2013-05-10 04:03:00,
2013-05-09 23:06:00,64.2,58.6,29.03,South,186,0.0,0.0,82,0.00,,---,0.16,VWS V14.00,2013-05-10 04:06:00,
2013-05-09 23:12:00,64.0,58.8,29.03,South,186,0.0,0.0,83,0.00,,---,0.16,VWS V14.00,2013-05-10 04:12:00,
2013-05-09 23:15:00,64.0,58.8,29.03,South,186,0.0,0.0,83,0.00,,---,0.16,VWS V14.00,2013-05-10 04:15:00,
2013-05-09 23:18:00,64.0,58.8,29.03,South,186,0.0,0.0,83,0.00,,---,0.16,VWS V14.00,2013-05-10 04:18:00,
2013-05-09 23:21:00,64.2,58.6,29.03,South,186,0.0,0.0,82,0.00,,---,0.16,VWS V14.00,2013-05-10 04:21:00,
2013-05-09 23:24:00,64.2,58.6,29.03,South,186,0.0,3.6,82,0.00,,---,0.16,VWS V14.00,2013-05-10 04:24:00,
2013-05-09 23:27:00,64.2,58.6,29.03,South,186,0.0,3.6,82,0.00,,---,0.16,VWS V14.00,2013-05-10 04:27:00,
2013-05-09 23:30:00,64.2,58.6,29.06,South,186,0.0,3.6,82,0.00,,---,0.16,VWS V14.00,2013-05-10 04:30:00,
2013-05-09 23:33:00,64.2,58.6,29.06,South,186,0.0,3.6,82,0.00,,---,0.16,VWS V14.00,2013-05-10 04:33:00,
2013-05-09 23:35:00,64.2,58.6,29.06,South,186,0.0,3.6,82,0.00,,---,0.16,VWS V14.00,2013-05-10 04:35:00,
2013-05-09 23:36:00,64.0,58.4,29.06,South,186,0.0,0.0,82,0.00,,---,0.16,VWS V14.00,2013-05-10 04:36:00,
2013-05-09 23:39:00,63.8,58.2,29.06,South,186,0.0,0.0,82,0.00,,---,0.16,VWS V14.00,2013-05-10 04:39:00,
2013-05-09 23:45:00,63.7,58.1,29.06,South,186,0.0,0.0,82,0.00,,---,0.16,VWS V14.00,2013-05-10 04:45:00,
2013-05-09 23:48:00,63.5,57.9,29.06,South,186,0.0,0.0,82,0.00,,---,0.16,VWS V14.00,2013-05-10 04:48:00,
2013-05-09 23:51:00,63.3,58.1,29.06,South,186,0.0,0.0,83,0.00,,---,0.16,VWS V14.00,2013-05-10 04:51:00,
2013-05-09 23:58:00,63.1,58.2,29.06,South,186,0.0,0.0,84,0.00,,---,0.16,VWS V14.00,2013-05-10 04:58:00,